Regional Weather Roundup
Issued by NWS Newport/Morehead, NC

Current Version | Previous Version | Text Only | Print | Product List | Glossary On
Versions: 1 2 3 4 5 6 7 8 9 10 11 12 13 14 15 16 17 18 19 20 21 22 23 24 25 26 27 28 29 30 31 32 33 34 35 36 37 38 39 40 41 42 43 44 45 46 47 48 49 50
787
ASUS42 KMHX 261614
RWRMHX
WEATHER ROUNDUP FOR EASTERN NORTH CAROLINA
NATIONAL WEATHER SERVICE NEWPORT/MOREHEAD CITY NC
1200 PM EDT TUE SEP 26 2017

NOTE: "FAIR" INDICATES FEW OR NO CLOUDS BELOW 12,000 FEET
WITH NO SIGNIFICANT WEATHER AND/OR OBSTRUCTIONS TO VISIBILITY

NCZ015>017-031-032-045>047-102-103-261700-
NORTH COAST

CITY           SKY/WX    TMP DP  RH WIND       PRES   REMARKS
EDENTON        CLOUDY    77  74  88 N13G22    29.85F
ELIZABETH CITY CLOUDY    78  75  90 N23G30    29.84F
KITTY HAWK     NOT AVBL
MANTEO         CLOUDY    77  72  85 NE25G33   29.78F

$$

NCZ045>047-081-094-103-104-261700-
CENTRAL COAST

CITY           SKY/WX    TMP DP  RH WIND       PRES   REMARKS
FRISCO         LGT RAIN  77  75  93 NE16G37   29.68F FOG

$$

NCZ095-097-098-100-101-261700-
SOUTHERN COAST

CITY           SKY/WX    TMP DP  RH WIND       PRES   REMARKS
BEAUFORT       CLOUDY    81  75  82 N24G39    29.73F
CEDAR ISLAND   NOT AVBL
JACKSONVILLE   CLOUDY    79  74  84 N18G24    29.79F
PINEY ISLAND     N/A    N/A N/A N/A N24G32    29.74F
WILMINGTON     CLOUDY    79  71  76 N18G28    29.83S


$$

NCZ011>013-027>030-043-044-078>080-089-090>093-098-261700-
COASTAL PLAIN

CITY           SKY/WX    TMP DP  RH WIND       PRES   REMARKS
AHOSKIE        CLOUDY    74  72  94 N10       29.91S
CLINTON        CLOUDY    76  73  88 N7        29.89S
ELIZABETHTOWN  NOT AVBL
GOLDSBORO      CLOUDY    77  75  94 N12G21    29.86F
GREENVILLE     CLOUDY    77  72  83 N13G21    29.89S
HAVELOCK       CLOUDY    81  74  79 N22       29.78F
KENANSVILLE    CLOUDY    77  72  83 N14G21    29.87S
KINSTON        CLOUDY    77  72  83 N16       29.86S
NEW BERN       CLOUDY    81  73  76 N20G29    29.81F
RICHLANDS      CLOUDY    78  72  81 N8G17     29.83S
ROCKY MOUNT    CLOUDY    77  72  84 N17       29.91S
WASHINGTON     CLOUDY    78  73  82 N15G22    29.84F
WHITEVILLE     CLOUDY    79  71  76 N8        29.87F

$$

AMZ130-135-150-152-154-156-158-170-250-252-270-ANZ085-086-088-633-658-670-261700-
MARINE OBSERVATIONS

STATION/POSITION TIME  TEMP    WIND        PRES    WAVE   SWELL
                       AIR SEA DIR/SP/G            HT/PER HT/PER
                 (UTC) (F)     (DEG/KT/KT) (MB)    (FT/S) (FT/S)
CHESAPEAKE LIGHT NOT AVBL
64 E VA BEACH    1550   73 70   30/ 21/ 27 1009.1   17/12  16/12
DUCK             1536   75 76   20/ 30/ 34 1008.6
2 E DUCK         1600      76                N/A    10/13   7/13
OREGON INLET     1536   76 75   10/ 21/ 32 1007.0
13E OREGON INLT  1518      75                N/A    19/14  18/14
HATTERAS CG      1536   77 76   10/ 31/ 38 1004.9
DIAMOND BUOY     1550   76 80   10/ 31/ 39 1002.0   19/13  16/13
CAPE LOOKOUT     1600   80     360/ 29/ 37 1005.6
BEAUFORT LAB     1536   79 74   10/ 21/ 25 1006.6
30 SE NEW RVR IN 1508   79      10/ 23/ 31 1006.6
30 SE NEW RVR IN NOT AVBL
27 SE WRIGHTSVLE 1508   78 79  360/ 19/ 27 1007.7
5 SE WRIGHTSVLE  1508   76 78  340/ 17/ 27 1009.1
225 S CAPE HAT   1550   80 81  280/ 31/ 39 1000.9   15/ 8
41 SE CHARLESTON 1550   75 81  330/ 12/ 14 1010.9    7/13   7/13

$$




USA.gov is the U.S. government's official web portal to all federal, state and local government web resources and services.